Home   Weather   Ganderkesee   Past weeks

Flag for Germany Past Weather in Ganderkesee, Lower Saxony, Germany — Yesterday and Last 2 Weeks

46 °F

Passing clouds.

Feels Like: 45 °F
Forecast: 39 / 48 °F
Wind: 3 mph from Southwest

Location: Bremen Airport

Current Time: Oct 22, 2016 at 9:54:14 PM

Latest Report: Oct 22, 2016 at 9:20 PM

Visibility: N/A

Pressure: 29.95 "Hg

Humidity: 93%

Dew Point: 45 °F

Location of GanderkeseeLocation

Past Weather in Ganderkesee — Graph


Ganderkesee Temperature Yesterday

Maximum temperature yesterday: 48 °F (at 11:50 AM)
Minimum temperature yesterday: 39 °F (at 4:20 AM)
Average temperature yesterday: 45 °F

High & Low Weather Summary for the Past Weeks

High63 °F (Oct 16, 3:50 PM)100% (Oct 9, 2:20 AM)30.30 "Hg (Oct 9, 2:20 AM)
Low34 °F (Oct 10, 5:20 AM)54% (Oct 10, 2:20 PM)29.74 "Hg (Oct 15, 3:50 AM)
Average48 °F89%30.08 "Hg
* Reported Oct 7 8:20 PM — Oct 22 8:20 PM, Ganderkesee, Weather by CustomWeather, © 2016

Note: Actual official high and low records may vary slightly from our data, if they occured in-between our weather recording intervals... More about our weather records


Ganderkesee Weather History for the Previous 24 Hours

Scroll right to see more
Time TempWeatherWind HumidityBarometerVisibility
8:20 PM
Sat, Oct 22
46 °FPartly cloudy.2 mph93%29.95 "HgN/A
7:50 PM46 °FLight rain. Passing clouds.3 mph93%29.95 "HgN/A
7:20 PM46 °FPartly cloudy.5 mph93%29.95 "HgN/A
6:50 PM48 °FPassing clouds.5 mph87%29.95 "HgN/A
6:20 PM48 °FPassing clouds.3 mph87%29.95 "HgN/A
5:50 PM48 °FBroken clouds.3 mph87%29.95 "HgN/A
5:20 PM48 °FBroken clouds.5 mph87%29.95 "HgN/A
4:50 PM50 °FPartly sunny.2 mph76%29.95 "HgN/A
4:20 PM50 °FScattered clouds.1 mph76%29.95 "HgN/A
3:50 PM50 °FScattered clouds.3 mph76%29.95 "HgN/A
3:20 PM50 °FScattered clouds.3 mph71%29.95 "HgN/A
2:50 PM50 °FScattered clouds.3 mph76%29.95 "HgN/A
2:20 PM50 °FScattered clouds.2 mph71%29.95 "HgN/A
1:50 PM50 °FScattered clouds.2 mph76%29.95 "HgN/A
1:20 PM48 °FScattered clouds.8 mph82%29.95 "HgN/A
12:50 PM48 °FPartly sunny.7 mph94%29.95 "HgN/A
12:20 PM46 °FPartly sunny.6 mph93%29.95 "HgN/A
11:50 AM46 °FBroken clouds.6 mph93%29.95 "HgN/A
11:20 AM46 °FBroken clouds.8 mph93%29.95 "HgN/A
10:50 AM46 °FBroken clouds.7 mph93%29.95 "HgN/A
10:20 AM46 °FBroken clouds.6 mph93%29.95 "Hg6 mi
9:50 AM45 °FBroken clouds.9 mph100%29.95 "Hg6 mi
9:20 AM45 °FBroken clouds.7 mph100%29.95 "Hg6 mi
8:50 AM45 °FBroken clouds.7 mph93%29.95 "Hg6 mi
8:20 AM45 °FBroken clouds.7 mph93%29.92 "HgN/A
7:50 AM45 °FPassing clouds.7 mph93%29.92 "HgN/A
7:20 AM45 °FPassing clouds.7 mph100%29.92 "HgN/A
6:50 AM45 °FPassing clouds.7 mph100%29.92 "Hg4 mi
6:20 AM45 °FPartly cloudy.8 mph100%29.92 "Hg4 mi
5:50 AM45 °FFog.9 mph100%29.92 "Hg3 mi
5:20 AM45 °FFog.7 mph100%29.92 "Hg3 mi
4:50 AM45 °FPassing clouds.6 mph100%29.92 "Hg4 mi
4:20 AM45 °FPassing clouds.5 mph93%29.92 "HgN/A
3:50 AM43 °FPartly cloudy.6 mph100%29.92 "HgN/A
3:20 AM45 °FPassing clouds.7 mph93%29.92 "Hg6 mi
2:20 AM45 °FPassing clouds.8 mph100%29.92 "Hg4 mi
1:50 AM45 °FPartly cloudy.7 mph100%29.92 "Hg4 mi
1:20 AM45 °FPassing clouds.6 mph93%29.92 "Hg4 mi
12:50 AM45 °FPassing clouds.6 mph100%29.92 "Hg5 mi
12:20 AM45 °FPartly cloudy.7 mph100%29.92 "HgN/A
11:50 PM
Fri, Oct 21
45 °FPassing clouds.6 mph100%29.92 "HgN/A
11:20 PM46 °FPassing clouds.8 mph93%29.92 "HgN/A
10:50 PM46 °FLight rain. Passing clouds.7 mph100%29.92 "HgN/A
10:20 PM46 °FLight rain. Partly cloudy.8 mph100%29.92 "HgN/A
9:50 PM46 °FLight rain. Passing clouds.7 mph100%29.92 "HgN/A
9:20 PM46 °FPassing clouds.5 mph100%29.92 "HgN/A
Weather by CustomWeather, © 2016

See weather overviewHow to use our weather pages